Weather Roundup
Issued by NWS Chicago, IL

Home | Current Version | Previous Version | Graphics & Text | Print | Product List | Glossary On
Versions: 1 2 3 4 5 6 7 8 9 10 11 12 13 14 15 16 17 18 19 20 21 22 23 24 25 26 27 28 29 30 31 32 33 34 35 36 37 38 39 40 41 42 43 44 45 46 47 48 49 50
000
NZUS59 KLOT 272206
HRRLOT

CHICAGO AREA WEATHER ROUNDUP
NATIONAL WEATHER SERVICE CHICAGO/ROMEOVILLE IL
400 PM CST TUE JAN 27 2015

NOTE: "FAIR" INDICATES FEW OR NO CLOUDS BELOW 12,000 FEET WITH NO
SIGNIFICANT WEATHER AND/OR OBSTRUCTIONS TO VISIBILITY.

* THESE STATIONS ARE NOT UNDER NWS QUALITY CONTROL. THEY ALSO MAY NOT
  REPORT WEATHER SUCH AS PRECIPITATION OR FOG.

ILZ005-006-012>014-019>023-272300-
NORTHEAST ILLINOIS

CITY           SKY/WX    TMP DP  RH WIND       PRES   REMARKS
OHARE          PTCLDY    30  16  56 NE9       30.20R WCI  22
MIDWAY         PTCLDY    31  17  56 NE13      30.21R WCI  21
AURORA         MOCLDY    32  22  66 NW7       30.21R WCI  26
LANSING*       CLEAR     29  18  62 N7        30.21S WCI  22
JOLIET*        CLEAR     32  20  62 N5        30.20S WCI  27
WAUKEGAN       CLEAR     27  16  63 NE7       30.21R WCI  19
DUPAGE AIRPORT PTCLDY    32  18  56 NE6       30.19R WCI  26
WHEELING       CLEAR     29  15  56 NE8       30.23R WCI  21
KANKAKEE*      PTCLDY    30  21  69 N5        30.20S WCI  25
MORRIS*        CLEAR     31  24  74 NW3       30.21R
LEWIS AIRPORT* CLEAR     32  20  62 NE9       30.20S WCI  24
NORTHERLY IS     N/A     28  17  63 N10         N/A  WCI  19
$$

WIZ051-052-058>065-066-070>072-272300-
SOUTHEAST WISCONSIN

CITY           SKY/WX    TMP DP  RH WIND       PRES   REMARKS
MILWAUKEE      PTCLDY    28  16  60 NE10      30.22S WCI  19
KENOSHA*       PTCLDY    29  18  63 NE9       30.21R WCI  20
RACINE*        CLEAR     28  16  60 N9        30.23S WCI  19
BURLINGTON     MOCLDY    27  16  62 E5        30.21R WCI  22
WAUKESHA       CLOUDY    27  16  63 E6        30.21R WCI  20
$$

INZ001>003-010>013-019-020-272300-
NORTHWEST INDIANA

CITY           SKY/WX    TMP DP  RH WIND       PRES   REMARKS
GARY*          PTCLDY    30  14  51 N7        30.21R WCI  23
MICHIGAN CITY* NOT AVBL
RENSSELAER*    NOT AVBL
VALPARAISO     CLEAR     28  15  58 N8        30.19R WCI  20
$$

LMZ740>746-272300-
SOUTHERN LAKE MICHIGAN

STATION/POSITION TIME  SKY/WX   TEMP WIND        PRES    VSBY
                                AIR  DIR/SP/G
                 (UTC)          (F)  (DEG/KT/KT) (MB)    (MI)
HARRISON CRIB    2200            27   10/ 10/ 12   N/A
BURNHAM HARBOR   2200            28  360/  6/ 12   N/A
CALUMET HARBOR   2200            28  340/  8/ 12   N/A
BURNS HARBOR     NOT AVBL
MICHIGAN CITY    2200            27  350/ 11/ 13   N/A
$$

ABBREVIATIONS USED IN REMARKS
   TC - TEMPERATURE IN CELSIUS
  WCI - WIND CHILL INDEX
   HX - HEAT INDEX
  VSB - VISIBILITY
$$



USA.gov is the U.S. government's official web portal to all federal, state and local government web resources and services.